Regional Weather Roundup
Issued by NWS

Current Version | Previous Version | Text Only | Print | Product List | Glossary On
Versions: 1 2 3 4 5 6 7 8 9 10 11 12 13 14 15 16 17 18 19 20 21 22 23 24 25 26 27 28 29 30 31 32 33 34 35 36 37 38 39 40 41 42 43 44 45 46 47 48 49 50
000
ASUS45 KSLC 021510
RWRUT

UTAH REGIONAL WEATHER ROUNDUP
NATIONAL WEATHER SERVICE SALT LAKE CITY UT
800 AM MST TUE MAR 02 2021

UTZ001>011-023>025-021600-

NORTHERN UTAH

CITY           SKY/WX    TMP DP  RH WIND       PRES   REMARKS
BRIGHAM CITY   CLEAR     25  18  76 NW5       30.19F WCI  19
DUGWAY         PTCLDY    21  12  69 CALM      30.19R
HILL AFB       SUNNY     28  16  59 NE10      30.17R WCI  19
LOGAN          SUNNY     20  17  88 W5        30.19F WCI  13
OGDEN          SUNNY     30  15  53 S8        30.17S WCI  22
SALT LAKE CITY MOSUNNY   32  23  69 E6        30.17S WCI  26
TOOELE VALLEY  SUNNY     28  23  80 CALM      30.18F
WENDOVER       CLEAR     21  10  62 CALM      30.19S
HEBER CITY       N/A     19  16  86 CALM      30.19S
WEST JORDAN    SUNNY     33  25  72 S6        30.17F WCI  27

$$

UTZ011>015-024>027-021600-

CENTRAL/NORTHEAST UTAH

CITY           SKY/WX    TMP DP  RH WIND       PRES   REMARKS
PROVO AIRPORT  SUNNY     29  20  69 CALM      30.21R
MOAB/CANYONLAN SUNNY     29   8  41 SE5       30.25S WCI  24
DELTA          SUNNY     28  18  64 NE10      30.17S WCI  19
PRICE          SUNNY     27  10  49 CALM      30.22S
RICHFIELD      SUNNY     23  16  74 CALM      30.22R
ROOSEVELT      SUNNY     23  16  74 CALM      30.28S
DUCHESNE       SUNNY     21  10  63 NW6       30.24R WCI  14
VERNAL         SUNNY     23  13  65 CALM      30.26R

$$

UTZ013>016-019>022-027-021600-

SOUTHERN UTAH

CITY           SKY/WX    TMP DP  RH WIND       PRES   REMARKS
BRYCE CANYON   SUNNY     15   5  64 W5        30.21S WCI   8
CEDAR CITY     MOSUNNY   26   9  48 CALM      30.16S
MILFORD        MOSUNNY   20   7  57 S6        30.16S WCI  12
PANGUITCH        N/A     18   7  62 CALM      30.24S
ST GEORGE      SUNNY     34   4  28 CALM      30.20S
HANKSVILLE     SUNNY     18  -6  35 MISG      30.30R
KANAB          SUNNY     32   1  27 N15       30.23S WCI  22
BLANDING         N/A     28  12  50 N3        30.32R

$$

REGIONAL REPORTS     COLORADO/ARIZONA

CITY           SKY/WX    TMP DP  RH WIND       PRES   REMARKS
CRAIG, CO      SUNNY     14  10  84 W3        30.27R
GRAND JUNCTION SUNNY     26  12  55 CALM      30.28S
RIFLE, CO      SUNNY     22  15  75 CALM      30.31R
MONTROSE, CO   SUNNY     26  11  52 SE6       30.30S WCI  19
CORTEZ, CO     SUNNY     22  14  71 CALM      30.27R
COLORADO CITY    N/A     32   3  29 SE6       30.21S WCI  26
PAGE, AZ       SUNNY     33   1  25 VRB3      30.23R
GRAND CANYON   SUNNY     33   1  25 NE9       30.18F WCI  25
KINGMAN, AZ    SUNNY     37   3  24 SE5       30.11S WCI  33
FLAGSTAFF, AZ  SUNNY     21  10  62 CALM      30.18S

$$

REGIONAL REPORTS    NEVADA/IDAHO/WYOMING

CITY           SKY/WX    TMP DP  RH WIND       PRES   REMARKS
LAS VEGAS, NV  PTCLDY    42   5  21 SW3       30.12S
ELY, NY        PTCLDY    18   8  65 S7        30.15S WCI   9
ELKO, NV       CLEAR     21  15  78 E3        30.13F
POCATELLO, ID  CLEAR     18  13  80 NE5       30.19R WCI  11
BURLEY, ID     CLEAR     28  19  69 E13       30.13S WCI  17
EVANSTON, WY   SUNNY     22  11  62 SW5       30.16R WCI  16
ROCK SPRINGS,  SUNNY     21  13  71 S3        30.16S
KEMMERER, WY   SUNNY     19   9  63 CALM      30.16R

$$




USA.gov is the U.S. government's official web portal to all federal, state and local government web resources and services.